Location: Quedlinburg
(51.7921°N, 11.1414°E)
Time: 07:51:39
(UTC+02:00)

SO-50 - Pass Details

Date: 11 March 2026
Orbit: 567 x 673 km, 64.6° (Epoch: 13 April)

Event Time Altitude Azimuth Distance (km) Brightness Sun altitude
Rises 23:09:18 0° 292° (WNW) 2,999 ? -39.1°
Reaches altitude 10° 23:12:18 10° 312° (NW) 2,100 ? -39.3°
Enters shadow 23:13:25 14° 324° (NW) 1,852 ? -39.4°
